GW2516 Weather Reports


time (UTC)temp
C
wind
direction
speed
KPH
gust
KPH
rain 1hr
cm
rain 24hr
cm
rain mn
cm
humidity
%
barometer
mb
20260506014024 17 0 0.0 6.4 0.00 0.00 0.00 72 1015.1
20260506013524 17 74 3.2 6.4 0.00 0.00 0.00 71 1015.1
20260506013040 17 8 1.6 6.4 0.00 0.00 0.00 71 1015.1
20260506012524 17 305 0.0 6.4 0.00 0.00 0.00 72 1015.2
20260506012026 17 332 3.2 6.4 0.00 0.00 0.00 72 1015.2
20260506011610 17 11 3.2 6.4 0.00 0.00 0.00 72 1015.3
20260506011025 17 319 0.0 3.2 0.00 0.00 0.00 72 1015.1
20260506010525 17 309 0.0 6.4 0.00 0.00 0.00 72 1015.1
20260506010047 16 0 0.0 6.4 0.00 0.00 0.00 72 1015.1
20260506005525 17 20 3.2 8.0 0.00 0.00 0.00 72 1015.1
20260506005025 16 0 0.0 8.0 0.00 0.00 0.00 72 1015.2
20260506004557 17 278 3.2 8.0 0.00 0.00 0.00 72 1015.3
20260506004025 17 340 3.2 6.4 0.00 0.00 0.00 72 1015.3
20260506003524 17 235 1.6 4.8 0.00 0.00 0.00 71 1015.3
20260506003042 17 246 0.0 6.4 0.00 0.00 0.00 72 1015.3
20260506002524 17 246 0.0 6.4 0.00 0.00 0.00 72 1015.2
20260506002024 16 312 3.2 6.4 0.00 0.00 0.00 72 1015.4
20260506001543 17 310 3.2 6.4 0.00 0.00 0.00 72 1015.4
20260506001024 16 0 0.0 6.4 0.00 0.00 0.00 72 1015.3
20260506000526 16 0 3.2 6.4 0.00 0.00 0.00 72 1015.5
20260506000112 16 257 4.8 6.4 0.00 0.00 0.00 73 1015.5
20260505235525 16 276 1.6 8.0 0.00 0.00 0.00 74 1015.4
20260505235024 16 67 3.2 11.3 0.00 0.00 0.00 73 1015.5
20260505234548 16 273 4.8 11.3 0.00 0.00 0.00 73 1015.6
20260505234024 16 53 3.2 8.0 0.00 0.00 0.00 74 1015.6
20260505233526 16 56 3.2 8.0 0.00 0.00 0.00 73 1015.7
20260505233038 16 316 1.6 11.3 0.00 0.00 0.00 73 1015.6
20260505232526 16 32 3.2 11.3 0.00 0.00 0.00 73 1015.7
20260505232024 16 332 3.2 11.3 0.00 0.00 0.00 72 1015.7
20260505231540 16 32 1.6 8.0 0.00 0.00 0.00 73 1015.7
20260505231024 16 326 1.6 9.7 0.00 0.00 0.00 74 1015.6
20260505230524 16 340 3.2 9.7 0.00 0.00 0.00 74 1015.7
20260505230059 16 309 3.2 9.7 0.00 0.00 0.00 74 1015.7
20260505225528 16 348 3.2 9.7 0.00 0.00 0.00 74 1015.7
20260505225024 16 309 6.4 11.3 0.00 0.00 0.00 74 1015.8
20260505224544 16 308 4.8 11.3 0.00 0.00 0.00 74 1015.8
20260505224025 16 330 6.4 9.7 0.00 0.00 0.00 74 1015.8
20260505223524 16 314 1.6 8.0 0.00 0.00 0.00 74 1015.9
20260505223041 16 326 4.8 11.3 0.00 0.00 0.00 73 1015.8
20260505222526 16 311 1.6 11.3 0.00 0.00 0.00 73 1016.0
20260505222025 16 322 3.2 11.3 0.00 0.00 0.00 72 1016.0
20260505221546 16 341 0.0 8.0 0.00 0.00 0.00 73 1015.9
20260505221024 16 0 3.2 12.9 0.00 0.00 0.00 72 1016.0
20260505220524 16 193 3.2 12.9 0.00 0.00 0.00 73 1015.9
20260505220040 17 263 1.6 8.0 0.00 0.00 0.00 72 1015.9
20260505215524 17 0 1.6 8.0 0.00 0.00 0.00 71 1015.9
20260505215024 17 0 0.0 8.0 0.00 0.00 0.00 72 1016.0
20260505214543 16 0 0.0 8.0 0.00 0.00 0.00 72 1016.1
20260505214025 17 332 4.8 8.0 0.00 0.00 0.00 71 1016.1
20260505213524 17 199 0.0 6.4 0.00 0.00 0.00 71 1016.1
20260505213043 17 193 3.2 6.4 0.00 0.00 0.00 72 1016.0
20260505212524 17 219 0.0 8.0 0.00 0.00 0.00 72 1016.0
20260505212024 17 200 3.2 8.0 0.00 0.00 0.00 72 1016.1
20260505211542 17 259 0.0 3.2 0.00 0.00 0.00 72 1016.2
20260505211026 16 0 0.0 8.0 0.00 0.00 0.00 74 1016.2
20260505210527 16 84 4.8 8.0 0.00 0.00 0.00 74 1016.3
20260505210041 16 323 0.0 4.8 0.00 0.00 0.00 74 1016.3
20260505205525 16 0 0.0 4.8 0.00 0.00 0.00 75 1016.4
20260505205026 16 0 0.0 4.8 0.00 0.00 0.00 76 1016.4
20260505204547 16 274 3.2 6.4 0.00 0.00 0.00 75 1016.5
20260505204024 16 25 1.6 6.4 0.00 0.00 0.00 75 1016.5
20260505203607 16 300 1.6 6.4 0.00 0.00 0.00 75 1016.4
20260505203054 16 0 0.0 6.4 0.00 0.00 0.00 76 1016.4
20260505202524 15 0 0.0 6.4 0.00 0.00 0.00 76 1016.4
20260505202024 15 108 3.2 6.4 0.00 0.00 0.00 76 1016.5
20260505201548 16 32 1.6 8.0 0.00 0.00 0.00 76 1016.5
20260505201024 16 115 1.6 9.7 0.00 0.00 0.00 76 1016.6
20260505200524 15 91 4.8 9.7 0.00 0.00 0.00 77 1016.5
20260505200045 16 8 4.8 9.7 0.00 0.00 0.00 76 1016.5
20260505195523 16 318 1.6 6.4 0.00 0.00 0.00 76 1016.5
20260505195024 16 311 1.6 6.4 0.00 0.00 0.00 75 1016.6
20260505194553 16 0 0.0 6.4 0.00 0.00 0.00 75 1016.6
20260505194026 16 4 3.2 6.4 0.00 0.00 0.00 74 1016.7
20260505193525 16 231 0.0 3.2 0.00 0.00 0.00 75 1016.6
20260505193040 16 220 0.0 6.4 0.00 0.00 0.00 74 1016.7
20260505192524 16 0 0.0 6.4 0.00 0.00 0.00 76 1016.7
20260505192024 15 143 1.6 6.4 0.00 0.00 0.00 76 1016.7
20260505191553 15 0 0.0 6.4 0.00 0.00 0.00 77 1016.8
20260505191025 15 176 1.6 6.4 0.00 0.00 0.00 78 1016.7
20260505190527 15 214 0.0 3.2 0.00 0.00 0.00 79 1016.7
20260505190046 15 274 1.6 6.4 0.00 0.00 0.00 78 1016.7
20260505185524 15 211 1.6 6.4 0.00 0.00 0.00 79 1016.7
20260505185027 14 225 1.6 6.4 0.00 0.00 0.00 78 1016.6
20260505184543 14 212 0.0 4.8 0.00 0.00 0.00 79 1016.7
20260505184024 14 225 1.6 4.8 0.00 0.00 0.00 79 1016.8
20260505183525 14 0 0.0 4.8 0.00 0.00 0.00 78 1016.7
20260505183042 14 0 0.0 4.8 0.00 0.00 0.00 79 1016.7
20260505182523 14 266 0.0 6.4 0.00 0.00 0.00 79 1016.7
20260505182024 14 0 0.0 6.4 0.00 0.00 0.00 79 1016.7
20260505181540 14 214 0.0 4.8 0.00 0.00 0.00 79 1016.7
20260505181025 14 203 0.0 4.8 0.00 0.00 0.00 79 1016.7
20260505180524 14 261 1.6 4.8 0.00 0.00 0.00 78 1016.6
20260505180048 15 240 0.0 4.8 0.00 0.00 0.00 79 1016.6
20260505175525 14 0 0.0 4.8 0.00 0.00 0.00 78 1016.6
20260505175024 14 0 0.0 3.2 0.00 0.00 0.00 79 1016.5
20260505174543 14 0 0.0 3.2 0.00 0.00 0.00 79 1016.5
20260505174024 14 209 0.0 4.8 0.00 0.00 0.00 79 1016.6
20260505173526 14 212 1.6 4.8 0.00 0.00 0.00 79 1016.6
20260505173044 14 0 0.0 1.6 0.00 0.00 0.00 78 1016.5
20260505172525 14 136 0.0 6.4 0.00 0.00 0.00 79 1016.5
20260505172023 14 0 3.2 6.4 0.00 0.00 0.00 78 1016.4
20260505171544 15 192 0.0 3.2 0.00 0.00 0.00 78 1016.4
20260505171024 15 180 0.0 6.4 0.00 0.00 0.00 78 1016.3
20260505170525 14 195 1.6 6.4 0.00 0.00 0.00 78 1016.3
20260505170040 14 208 1.6 6.4 0.00 0.00 0.00 78 1016.3
20260505165524 14 0 1.6 6.4 0.00 0.00 0.00 78 1016.3
20260505165024 14 167 0.0 8.0 0.00 0.00 0.00 80 1016.2
20260505164536 13 0 1.6 8.0 0.00 0.00 0.00 81 1016.3
20260505164024 13 211 3.2 6.4 0.00 0.00 0.00 81 1016.2
20260505163523 13 0 0.0 9.7 0.00 0.00 0.00 82 1016.2
20260505163043 13 200 3.2 9.7 0.00 0.00 0.00 82 1016.2
20260505162524 13 194 0.0 9.7 0.00 0.00 0.00 82 1016.1
20260505162023 13 238 1.6 8.0 0.00 0.00 0.00 83 1016.2
20260505161542 13 200 4.8 8.0 0.00 0.00 0.00 82 1016.1
20260505161025 13 193 3.2 8.0 0.00 0.00 0.00 82 1016.1
20260505160524 13 0 0.0 1.6 0.00 0.00 0.00 83 1016.1
20260505153040 12 0 0.0 8.0 0.00 0.00 0.00 85 1016.0
20260505152524 12 0 1.6 8.0 0.00 0.00 0.00 85 1016.0
20260505152028 12 198 0.0 4.8 0.00 0.00 0.00 85 1016.0
20260505151544 12 0 0.0 8.0 0.00 0.00 0.00 86 1016.0
20260505151026 12 0 1.6 8.0 0.00 0.00 0.00 86 1016.0
20260505150526 12 0 1.6 9.7 0.00 0.00 0.00 86 1015.9
20260505150105 12 186 3.2 9.7 0.00 0.00 0.00 86 1015.9
20260505140525 12 194 3.2 6.4 0.00 0.00 0.00 86 1015.4
20260505125026 12 0 0.0 3.2 0.00 0.00 0.00 86 1015.0
20260505124552 12 0 0.0 0.0 0.00 0.00 0.00 85 1015.0
20260505124024 12 0 0.0 3.2 0.00 0.00 0.00 85 1014.9
20260505123525 12 0 0.0 3.2 0.00 0.00 0.00 85 1014.9
20260505123102 12 205 0.0 3.2 0.00 0.00 0.00 85 1014.9
20260505122525 12 220 0.0 3.2 0.00 0.00 0.00 85 1014.9
20260505122026 12 0 0.0 3.2 0.00 0.00 0.00 85 1014.9
20260505121613 12 0 0.0 3.2 0.00 0.00 0.00 85 1015.0
20260505121026 12 0 0.0 1.6 0.00 0.00 0.00 85 1015.0
20260505120524 12 204 0.0 3.2 0.00 0.00 0.00 85 1014.9
20260505120042 12 0 0.0 3.2 0.00 0.00 0.00 85 1014.9
20260505115525 12 200 0.0 3.2 0.00 0.00 0.00 85 1014.8
20260505115026 12 205 0.0 3.2 0.00 0.00 0.00 85 1014.8
20260505114542 12 206 0.0 3.2 0.00 0.00 0.00 85 1014.8
20260505114024 12 0 1.6 3.2 0.00 0.00 0.00 85 1014.8
20260505113526 12 0 0.0 3.2 0.00 0.00 0.00 85 1014.8
20260505113036 12 0 0.0 3.2 0.00 0.00 0.00 85 1014.8
20260505112528 12 196 0.0 3.2 0.00 0.00 0.00 84 1014.8
20260505112024 12 0 0.0 1.6 0.00 0.00 0.00 85 1014.8
20260505111548 12 0 0.0 1.6 0.00 0.00 0.00 85 1014.9
20260505111024 12 210 0.0 0.0 0.00 0.00 0.00 85 1014.8
20260505110525 12 0 0.0 0.0 0.00 0.00 0.00 85 1014.7
20260505102025 12 0 0.0 3.2 0.00 0.00 0.00 85 1014.3
20260505101545 12 0 0.0 3.2 0.00 0.00 0.00 85 1014.3
20260505101025 12 0 0.0 0.0 0.00 0.00 0.00 85 1014.3
20260505100524 12 0 0.0 3.2 0.00 0.00 0.00 85 1014.3
20260505100108 12 0 0.0 3.2 0.00 0.00 0.00 84 1014.3
20260505095524 12 212 0.0 3.2 0.00 0.00 0.00 84 1014.3
20260505095025 12 0 0.0 0.0 0.00 0.00 0.00 84 1014.3
20260505094544 12 0 0.0 1.6 0.00 0.00 0.00 84 1014.2
20260505094023 12 0 0.0 1.6 0.00 0.00 0.00 84 1014.2
20260505093526 12 0 0.0 1.6 0.00 0.00 0.00 84 1014.2
20260505093040 12 0 0.0 3.2 0.00 0.00 0.00 84 1014.2
20260505092524 12 0 0.0 3.2 0.00 0.00 0.00 84 1014.2
20260505092023 12 0 0.0 3.2 0.00 0.00 0.00 84 1014.1
20260505091555 12 0 0.0 3.2 0.00 0.00 0.00 85 1014.1
20260505091024 12 0 0.0 0.0 0.00 0.00 0.00 85 1014.1
20260505090525 12 0 0.0 0.0 0.00 0.00 0.00 85 1013.9
20260505090053 12 0 0.0 0.0 0.00 0.00 0.00 85 1013.8
20260505085523 13 0 0.0 0.0 0.00 0.00 0.00 85 1013.8
20260505085028 13 0 0.0 0.0 0.00 0.00 0.00 85 1013.8
20260505084547 13 0 0.0 3.2 0.00 0.00 0.00 84 1013.8
20260505084025 13 0 0.0 3.2 0.00 0.00 0.00 84 1013.8
20260505083522 13 0 0.0 3.2 0.00 0.00 0.00 84 1013.8
20260505083049 13 325 0.0 4.8 0.00 0.00 0.00 84 1013.7
20260505082527 13 15 1.6 4.8 0.00 0.00 0.00 84 1013.6
20260505082023 13 19 0.0 3.2 0.00 0.00 0.00 83 1013.5
20260505081545 13 0 0.0 1.6 0.00 0.00 0.00 83 1013.5
20260505081024 13 330 0.0 3.2 0.00 0.00 0.00 83 1013.5
20260505080623 13 335 1.6 4.8 0.00 0.00 0.00 83 1013.4
20260505080049 13 316 0.0 4.8 0.00 0.00 0.00 82 1013.4
20260505075523 13 309 3.2 6.4 0.00 0.00 0.00 82 1013.5
20260505075026 13 0 3.2 6.4 0.00 0.00 0.00 81 1013.3
20260505074543 14 0 0.0 0.0 0.00 0.00 0.00 81 1013.3
20260505074027 14 0 0.0 0.0 0.00 0.00 0.00 80 1013.2
20260505073525 14 0 0.0 0.0 0.00 0.00 0.00 80 1013.1
20260505073047 14 0 0.0 1.6 0.00 0.00 0.00 80 1013.1
20260505072523 14 0 0.0 6.4 0.00 0.00 0.00 80 1013.0
20260505072027 14 0 0.0 6.4 0.00 0.00 0.00 80 1013.0
20260505071542 14 203 3.2 6.4 0.00 0.00 0.00 79 1012.9
20260505071023 15 199 1.6 6.4 0.00 0.00 0.00 79 1012.8
20260505070526 15 218 3.2 8.0 0.00 0.00 0.00 79 1012.8
20260505070045 15 198 1.6 8.0 0.00 0.00 0.00 79 1012.8
20260505065526 15 231 3.2 8.0 0.00 0.00 0.00 78 1012.7
20260505065022 15 212 3.2 8.0 0.00 0.00 0.00 78 1012.8
20260505064540 15 203 0.0 3.2 0.00 0.00 0.00 78 1012.6
20260505064023 15 0 0.0 4.8 0.00 0.00 0.00 77 1012.5
20260505063523 15 201 1.6 4.8 0.00 0.00 0.00 77 1012.5
20260505063048 15 200 0.0 8.0 0.00 0.00 0.00 76 1012.5
20260505062526 16 203 3.2 8.0 0.00 0.00 0.00 76 1012.4
20260505062030 16 197 1.6 6.4 0.00 0.00 0.00 76 1012.3
20260505061548 16 0 0.0 0.0 0.00 0.00 0.00 76 1012.3
20260505061031 16 0 0.0 0.0 0.00 0.00 0.00 76 1012.2
20260505060526 16 0 0.0 0.0 0.00 0.00 0.00 75 1012.1
20260505060045 16 0 0.0 0.0 0.00 0.00 0.00 75 1012.1
20260505055528 16 0 0.0 0.0 0.00 0.00 0.00 75 1012.0
20260505055026 16 0 0.0 0.0 0.00 0.00 0.00 74 1012.0
20260505054612 17 0 0.0 4.8 0.00 0.00 0.00 73 1012.0
20260505054025 17 0 0.0 4.8 0.00 0.00 0.00 73 1012.0
20260505053523 17 337 1.6 4.8 0.00 0.00 0.00 72 1012.0
20260505053047 17 0 0.0 4.8 0.00 0.00 0.00 72 1012.0
20260505052523 17 261 1.6 4.8 0.00 0.00 0.00 71 1012.0
20260505052028 17 269 0.0 8.0 0.00 0.00 0.00 71 1011.9
20260505051544 17 264 1.6 8.0 0.00 0.00 0.00 71 1011.9
20260505051024 18 248 1.6 9.7 0.00 0.00 0.00 70 1011.9
20260505050527 18 333 3.2 9.7 0.00 0.00 0.00 70 1011.8
20260505041549 19 185 4.8 9.7 0.00 0.00 0.00 70 1011.0
20260505041023 20 221 3.2 9.7 0.00 0.00 0.00 71 1010.9
20260505040524 20 198 4.8 9.7 0.00 0.00 0.00 71 1010.9
20260505040044 20 207 4.8 9.7 0.00 0.00 0.00 72 1010.7
20260505035524 20 214 4.8 8.0 0.00 0.00 0.00 72 1010.6
20260505035023 20 195 1.6 6.4 0.00 0.00 0.00 72 1010.5
20260505034538 20 189 0.0 8.0 0.00 0.00 0.00 72 1010.4
20260505034025 20 0 1.6 8.0 0.00 0.00 0.00 71 1010.4
20260505033523 20 193 1.6 6.4 0.00 0.00 0.00 71 1010.3
20260505033036 20 203 3.2 6.4 0.00 0.00 0.00 71 1010.4
20260505032527 20 192 1.6 8.0 0.00 0.00 0.00 71 1010.2
20260505032024 20 203 1.6 8.0 0.00 0.00 0.00 70 1010.1
20260505031543 20 203 3.2 8.0 0.00 0.00 0.00 70 1010.2
20260505031023 20 219 1.6 8.0 0.00 0.00 0.00 69 1010.1
20260505030525 20 195 1.6 14.5 0.00 0.00 0.00 69 1010.0
20260505030055 21 184 3.2 14.5 0.00 0.00 0.00 69 1010.0
20260505025524 21 204 8.0 14.5 0.00 0.00 0.00 68 1009.9
20260505025023 21 191 6.4 14.5 0.00 0.00 0.00 68 1009.9
20260505024541 21 188 4.8 12.9 0.00 0.00 0.00 67 1009.9
20260505024023 21 183 4.8 12.9 0.00 0.00 0.00 66 1009.8
20260505023523 21 193 3.2 12.9 0.00 0.00 0.00 66 1009.8
20260505023040 21 210 6.4 12.9 0.00 0.00 0.00 65 1009.9
20260505022523 22 195 4.8 9.7 0.00 0.00 0.00 64 1009.8
20260505022026 22 155 1.6 9.7 0.00 0.00 0.00 63 1009.8
20260505021551 22 209 3.2 8.0 0.00 0.00 0.00 62 1009.8
20260505021024 23 218 0.0 12.9 0.00 0.00 0.00 61 1009.9
20260505020525 22 199 1.6 12.9 0.00 0.00 0.00 62 1009.9
20260505020049 23 207 4.8 12.9 0.00 0.00 0.00 60 1009.9
20260505015526 23 200 0.0 11.3 0.00 0.00 0.00 61 1009.9
20260505015026 23 195 3.2 11.3 0.00 0.00 0.00 61 1010.0
20260505014543 23 213 3.2 11.3 0.00 0.00 0.00 60 1009.9